Meteo pe oră la Bolshie Koshevniki

Astăzi, 19 Mai, Miercuri

Timp Temperatura Precipitaţii Vânt Presiune Umiditate
00:00 +10°C° 0 mm 3 m/s 732 mmHg 97%
01:00 +10°C° 0 mm 3 m/s 731 mmHg 97%
02:00 +9°C° 0 mm 3 m/s 731 mmHg 97%
03:00 +9°C° 0.6 mm 3 m/s 731 mmHg 97%
04:00 +9°C° 0.6 mm 3 m/s 731 mmHg 97%
05:00 +9°C° 0.6 mm 3 m/s 731 mmHg 97%
06:00 +9°C° 0.9 mm 3 m/s 731 mmHg 97%
07:00 +9°C° 0.9 mm 3 m/s 732 mmHg 97%
08:00 +9°C° 0.9 mm 3 m/s 732 mmHg 96%
09:00 +8°C° 0.1 mm 4 m/s 732 mmHg 96%
10:00 +8°C° 0.1 mm 4 m/s 733 mmHg 95%
11:00 +8°C° 0.1 mm 4 m/s 733 mmHg 94%
12:00 +8°C° 0.3 mm 4 m/s 733 mmHg 94%
13:00 +8°C° 0.3 mm 4 m/s 734 mmHg 94%
14:00 +8°C° 0.3 mm 4 m/s 734 mmHg 95%
15:00 +8°C° 0.7 mm 4 m/s 735 mmHg 95%
16:00 +8°C° 0.7 mm 4 m/s 735 mmHg 95%
17:00 +9°C° 0.7 mm 3 m/s 735 mmHg 94%
18:00 +9°C° 0.2 mm 3 m/s 736 mmHg 94%
19:00 +9°C° 0.2 mm 2 m/s 736 mmHg 94%
20:00 +9°C° 0.2 mm 2 m/s 736 mmHg 94%
21:00 +9°C° 0 mm 2 m/s 736 mmHg 94%
22:00 +9°C° 0 mm 2 m/s 736 mmHg 94%
23:00 +9°C° 0 mm 1 m/s 737 mmHg 94%

Mâine, 20 Mai, Joi

Timp Temperatura Precipitaţii Vânt Presiune Umiditate
00:00 +8°C° 0 mm 2 m/s 737 mmHg 94%
01:00 +8°C° 0 mm 2 m/s 737 mmHg 94%
02:00 +7°C° 0 mm 2 m/s 737 mmHg 95%
03:00 +7°C° 0 mm 2 m/s 737 mmHg 96%
04:00 +7°C° 0 mm 2 m/s 737 mmHg 96%
05:00 +7°C° 0 mm 2 m/s 737 mmHg 97%
06:00 +8°C° 0 mm 3 m/s 737 mmHg 93%
07:00 +10°C° 0 mm 4 m/s 738 mmHg 88%
08:00 +11°C° 0 mm 4 m/s 738 mmHg 84%
09:00 +12°C° 0 mm 5 m/s 738 mmHg 78%
10:00 +13°C° 0 mm 5 m/s 738 mmHg 72%
11:00 +14°C° 0 mm 5 m/s 738 mmHg 66%
12:00 +15°C° 0.1 mm 5 m/s 738 mmHg 64%
13:00 +15°C° 0.1 mm 5 m/s 738 mmHg 62%
14:00 +15°C° 0.1 mm 5 m/s 738 mmHg 60%
15:00 +15°C° 0 mm 5 m/s 738 mmHg 62%
16:00 +15°C° 0 mm 4 m/s 738 mmHg 63%
17:00 +15°C° 0 mm 4 m/s 738 mmHg 65%
18:00 +14°C° 0 mm 4 m/s 739 mmHg 70%
19:00 +13°C° 0 mm 4 m/s 739 mmHg 74%
20:00 +11°C° 0 mm 4 m/s 739 mmHg 78%
21:00 +10°C° 0 mm 3 m/s 740 mmHg 82%
22:00 +9°C° 0 mm 3 m/s 740 mmHg 86%
23:00 +8°C° 0 mm 3 m/s 741 mmHg 89%

Poimâine, 21 Mai, Vineri

Timp Temperatura Precipitaţii Vânt Presiune Umiditate
00:00 +7°C° 0 mm 3 m/s 741 mmHg 91%
01:00 +7°C° 0 mm 2 m/s 741 mmHg 92%
02:00 +6°C° 0 mm 2 m/s 742 mmHg 94%
03:00 +6°C° 0 mm 2 m/s 742 mmHg 93%
04:00 +5°C° 0 mm 2 m/s 742 mmHg 92%
05:00 +5°C° 0 mm 2 m/s 742 mmHg 91%
06:00 +6°C° 0 mm 2 m/s 743 mmHg 82%
07:00 +8°C° 0 mm 3 m/s 743 mmHg 72%
08:00 +10°C° 0 mm 3 m/s 743 mmHg 63%
09:00 +11°C° 0 mm 3 m/s 743 mmHg 60%
10:00 +12°C° 0 mm 4 m/s 743 mmHg 57%
11:00 +13°C° 0 mm 4 m/s 743 mmHg 55%
12:00 +14°C° 0 mm 4 m/s 743 mmHg 53%
13:00 +14°C° 0 mm 4 m/s 743 mmHg 52%
14:00 +15°C° 0 mm 4 m/s 743 mmHg 50%
15:00 +16°C° 0 mm 3 m/s 743 mmHg 51%
16:00 +16°C° 0 mm 3 m/s 743 mmHg 51%
17:00 +16°C° 0 mm 3 m/s 743 mmHg 52%
18:00 +15°C° 0 mm 2 m/s 743 mmHg 58%
19:00 +13°C° 0 mm 2 m/s 743 mmHg 64%
20:00 +11°C° 0 mm 1 m/s 743 mmHg 70%
21:00 +10°C° 0 mm 2 m/s 743 mmHg 71%
22:00 +9°C° 0 mm 2 m/s 743 mmHg 73%
23:00 +8°C° 0 mm 2 m/s 743 mmHg 74%

22 Mai, Sâmbătă

Timp Temperatura Precipitaţii Vânt Presiune Umiditate
00:00 +8°C° 0 mm 2 m/s 743 mmHg 74%
01:00 +8°C° 0 mm 3 m/s 742 mmHg 74%
02:00 +7°C° 0 mm 3 m/s 742 mmHg 74%
03:00 +8°C° 0 mm 3 m/s 742 mmHg 75%
04:00 +8°C° 0 mm 3 m/s 742 mmHg 75%
05:00 +8°C° 0 mm 3 m/s 742 mmHg 76%
06:00 +10°C° 0 mm 4 m/s 742 mmHg 75%
07:00 +10°C° 0 mm 5 m/s 742 mmHg 74%
08:00 +12°C° 0 mm 5 m/s 742 mmHg 73%
09:00 +14°C° 0 mm 6 m/s 742 mmHg 68%
10:00 +15°C° 0 mm 6 m/s 742 mmHg 64%
11:00 +17°C° 0 mm 6 m/s 742 mmHg 59%
12:00 +17°C° 0 mm 6 m/s 741 mmHg 57%
13:00 +19°C° 0 mm 6 m/s 741 mmHg 55%
14:00 +19°C° 0 mm 6 m/s 741 mmHg 53%
15:00 +19°C° 0 mm 5 m/s 740 mmHg 56%
16:00 +19°C° 0 mm 5 m/s 740 mmHg 59%
17:00 +19°C° 0 mm 5 m/s 740 mmHg 63%
18:00 +17°C° 0 mm 4 m/s 740 mmHg 69%
19:00 +15°C° 0 mm 4 m/s 739 mmHg 74%
20:00 +13°C° 0 mm 3 m/s 739 mmHg 80%
21:00 +13°C° 0 mm 4 m/s 739 mmHg 80%
22:00 +13°C° 0 mm 4 m/s 738 mmHg 81%
23:00 +12°C° 0 mm 5 m/s 738 mmHg 81%

23 Mai, Duminică

Timp Temperatura Precipitaţii Vânt Presiune Umiditate
00:00 +12°C° 0 mm 5 m/s 738 mmHg 82%
01:00 +12°C° 0 mm 5 m/s 737 mmHg 83%
02:00 +11°C° 0 mm 6 m/s 736 mmHg 84%
03:00 +11°C° 0.4 mm 6 m/s 736 mmHg 87%
04:00 +11°C° 0.4 mm 6 m/s 735 mmHg 90%
05:00 +11°C° 0.4 mm 6 m/s 735 mmHg 93%
06:00 +12°C° 1.4 mm 5 m/s 735 mmHg 94%
07:00 +12°C° 1.4 mm 5 m/s 735 mmHg 95%
08:00 +12°C° 1.4 mm 5 m/s 734 mmHg 96%
09:00 +12°C° 1.3 mm 4 m/s 735 mmHg 95%
10:00 +12°C° 1.3 mm 4 m/s 735 mmHg 94%
11:00 +12°C° 1.3 mm 4 m/s 735 mmHg 94%
12:00 +12°C° 0.7 mm 4 m/s 736 mmHg 91%
13:00 +12°C° 0.7 mm 4 m/s 736 mmHg 88%
14:00 +12°C° 0.7 mm 5 m/s 736 mmHg 85%
15:00 +12°C° 0.2 mm 4 m/s 737 mmHg 85%
16:00 +12°C° 0.2 mm 4 m/s 737 mmHg 85%
17:00 +12°C° 0.2 mm 4 m/s 737 mmHg 85%
18:00 +12°C° 0.1 mm 3 m/s 738 mmHg 87%
19:00 +12°C° 0.1 mm 2 m/s 738 mmHg 89%
20:00 +10°C° 0.1 mm 2 m/s 738 mmHg 91%
21:00 +10°C° 0 mm 2 m/s 739 mmHg 92%
22:00 +9°C° 0 mm 2 m/s 739 mmHg 93%
23:00 +8°C° 0 mm 2 m/s 739 mmHg 93%

24 Mai, Luni

Timp Temperatura Precipitaţii Vânt Presiune Umiditate
00:00 +8°C° 0 mm 2 m/s 740 mmHg 93%
01:00 +7°C° 0 mm 2 m/s 740 mmHg 93%
02:00 +8°C° 0 mm 1 m/s 740 mmHg 93%
03:00 +8°C° 0 mm 1 m/s 740 mmHg 93%
04:00 +7°C° 0 mm 2 m/s 741 mmHg 93%
05:00 +7°C° 0 mm 2 m/s 741 mmHg 93%
06:00 +8°C° 0.1 mm 2 m/s 741 mmHg 93%
07:00 +9°C° 0.1 mm 3 m/s 741 mmHg 92%
08:00 +10°C° 0.1 mm 4 m/s 741 mmHg 91%
09:00 +10°C° 0.2 mm 5 m/s 742 mmHg 83%
10:00 +12°C° 0.2 mm 5 m/s 742 mmHg 76%
11:00 +12°C° 0.2 mm 5 m/s 742 mmHg 68%
12:00 +11°C° 0.3 mm 6 m/s 742 mmHg 69%
13:00 +11°C° 0.3 mm 6 m/s 742 mmHg 69%
14:00 +11°C° 0.3 mm 6 m/s 743 mmHg 70%
15:00 +11°C° 0.2 mm 6 m/s 743 mmHg 68%
16:00 +13°C° 0.2 mm 5 m/s 743 mmHg 67%
17:00 +13°C° 0.2 mm 5 m/s 743 mmHg 66%
18:00 +10°C° 0.2 mm 5 m/s 743 mmHg 72%
19:00 +10°C° 0.2 mm 4 m/s 743 mmHg 79%
20:00 +8°C° 0.2 mm 4 m/s 743 mmHg 86%
21:00 +7°C° 0.1 mm 4 m/s 743 mmHg 89%
22:00 +7°C° 0.1 mm 4 m/s 744 mmHg 93%
23:00 +6°C° 0.1 mm 4 m/s 744 mmHg 96%
Arată mai mult

Formular de consimțământ

Meteoprog și furnizorii noștri de servicii pot stoca și accesa date personale, precum cookies, identificatori de dispozitiv sau alte tehnologii similare pe dispozitivul dumneavoastră și procesa astfel de date pentru a personaliza conținutul și reclamele, dar și pentru a oferi caracteristici de social media și pentru a analiza traficul.

  • Stocarea și/sau accesarea informațiilor pe dispozitivul dumneavoastră

    Cookies, identificatori de dispozitiv sau alte informații pot fi stocate sau accesate pe dispozitiv în scopurile indicate mai sus.

  • Reclame și conținut personalizat, evaluarea reclamelor și a conținutului, informații despre audiențe și dezvoltarea produselor

    Reclamele și conținutul pot fi personalizate pe baza unui profil. Pot fi adăugate date suplimentare pentru a personaliza mai bine reclamele și conținutul. Performanța reclamelor și conținutului poate fi măsurată. Pot fi obținute informații despre utilizatorii care au văzut reclamele și conținutul. Aceste date pot fi utilizate pentru a dezvolta sau îmbunătăți experiența utilizatorilor, sistemele și software-ul.

Dând clic pe ‘Sunt de acord’, permiteți utilizarea cookie-urilor menționate, a identificatorilor de dispozitiv, balizelor web sau altor tehnologii similare. Setările pot fi modificate din browser-ul dispozitivului dumneavoastră.

În anumite scopuri, interesele legitime pot prima asupra consimțământului. Puteți citi mai multe informații în acest sens în Politica privind Confidențialitatea Datelor și Cookie.